Location: Beaurecueil
(43.5122°N, 5.5450°E)
Time: 20:55:27
(UTC+00:00)

Cosmos 1603 - Pass Details

Date: 18 September 2020
Orbit: 832 x 858 km, 71.0° (Epoch: 27 October)

Event Time Altitude Azimuth Distance (km) Brightness Sun altitude
Rises 18:22:30 0° 335° (NNW) 3,418 7.4 -8.1°
Reaches altitude 10° 18:24:57 10° 336° (NNW) 2,475 6.6 -8.6°
Maximum altitude 18:30:39 85° 64° (ENE) 850 3.7 -9.6°
Drops below altitude 10° 18:36:16 10° 155° (SSE) 2,442 5.8 -10.6°
Sets 18:38:41 0° 155° (SSE) 3,369 6.5 -11.0°
